Dewpoint
57 57 57 57 56 56 55 54 54 55 57 57 59 60 60 61 59 49 39 35 42 39 39 31 32 30 32 35 42 42 35 33 32 29 29 32 30 30 28 25 27 30 32 38 45
55 55 54 54 54 53 53 51 51 52 55 57 58 59 59 60 54 42 37 37 36 39 28 26 24 26 24 32 41 39 37 36 35 31 32 35 34 29 29 26 29 36 41 44 44
52 52 52 51 50 50 51 51 50 51 53 55 58 60 60 60 46 31 42 36 35 36 34 29 24 24 23 27 29 34 36 37 35 35 35 35 34 35 30 30 28 33 40 43 43
50 50 50 49 49 49 49 51 50 50 51 54 57 60 60 54 20 31 38 32 32 36 30 24 21 21 25 24 26 26 25 24 26 34 34 34 35 33 34 33 35 33 41 42 42
50 50 50 50 49 49 49 50 51 52 52 54 57 60 53 43 34 30 39 33 30 30 25 20 20 20 20 20 20 18 21 23 23 26 32 34 33 32 32 34 35 34 41 41 41
50 50 50 50 49 49 50 50 52 54 55 56 58 59 45 27 23 30 32 30 26 26 24 21 21 21 16 18 18 21 22 21 20 19 24 28 28 30 31 33 32 35 38 41 41
50 50 50 49 51 51 50 52 54 55 57 57 59 55 43 31 22 28 27 26 26 26 25 26 25 24 24 19 20 17 16 16 17 19 18 24 21 22 24 26 28 30 36 40 41
50 50 49 50 51 51 52 53 54 56 58 59 58 52 35 29 25 23 24 26 26 26 25 26 27 26 24 22 20 14 14 14 19 21 20 18 14 16 17 20 22 25 29 36 39
50 50 49 50 51 51 52 53 55 57 57 57 49 46 27 25 24 24 22 23 25 24 25 26 25 24 23 21 18 17 12 13 16 17 19 17 16 19 21 19 18 21 25 27 34
50 51 50 50 50 51 52 53 55 55 51 51 46 34 29 24 28 28 25 23 22 22 23 25 24 22 22 19 12 14 12 12 12 17 20 19 19 20 21 18 15 16 18 17 21
50 50 50 50 51 51 51 48 42 43 44 38 35 32 30 32 30 25 23 22 22 21 18 23 17 12 13 18 17 15 15 14 14 16 13 12 12 13 16 16 13 14 16 16 15
49 49 50 50 51 51 49 45 46 47 35 42 35 33 33 32 29 22 22 21 21 18 19 17 13 14 15 16 16 16 15 14 15 14 13 12 14 17 19 20 19 17 16 17 16
47 49 50 51 51 45 44 44 47 50 43 38 33 31 30 30 26 20 21 20 18 17 16 13 13 17 14 12 11 11 11 13 12 17 17 15 17 17 19 19 21 21 22 22 22
48 49 49 51 39 37 43 41 43 49 35 27 31 31 30 32 24 24 23 22 19 15 16 15 16 14 14 14 15 12 20 19 16 14 7 16 14 16 18 19 20 21 22 23 24
48 48 50 50 42 39 38 40 43 47 12 25 27 30 28 28 22 22 24 22 17 16 18 16 15 15 16 17 16 13 19 18 17 16 18 15 11 15 17 18 20 21 23 24 25
47 48 50 45 44 39 39 41 46 30 15 21 24 23 22 22 19 23 23 23 23 20 20 19 20 18 18 19 19 19 16 18 17 17 16 13 14 15 16 18 21 23 24 25 27
47 48 49 46 36 40 44 45 27 12 20 22 22 23 23 20 20 20 20 20 19 17 17 17 18 19 18 16 19 19 19 15 16 15 16 14 9 16 18 20 22 23 25 26 27
46 48 43 43 40 44 47 37 13 29 29 30 28 28 22 19 20 20 19 20 21 19 17 15 13 15 19 18 18 18 17 14 6 7 8 17 12 15 19 23 25 26 27 28 30
47 41 35 34 35 44 42 23 28 31 32 31 29 21 19 20 17 18 27 30 30 30 18 16 15 16 18 19 18 18 13 17 11 15 10 13 14 17 17 22 25 27 29 31 32
42 40 32 32 33 40 31 28 32 33 31 32 28 27 21 23 24 24 28 35 34 35 33 21 15 17 18 18 19 18 19 15 17 6 11 11 11 12 16 23 26 29 31 32 33
41 32 30 31 37 35 29 31 30 32 31 32 30 30 30 30 28 25 32 35 36 35 35 32 19 17 17 17 17 17 12 16 16 16 10 10 14 21 23 26 27 29 30 30 30
38 23 27 32 24 29 31 31 32 32 32 32 34 33 33 31 28 28 32 34 36 34 32 33 29 17 17 18 17 17 17 18 16 16 18 16 18 25 26 27 26 27 28 28 29
33 28 29 31 25 27 29 32 32 31 30 32 29 29 29 28 27 33 35 35 36 32 30 31 28 23 16 19 24 22 19 21 18 20 16 16 18 26 26 25 25 25 26 27 26
32 24 29 27 25 23 23 24 30 25 25 28 28 28 27 26 27 29 31 30 32 31 32 35 31 28 21 25 25 23 24 26 24 20 18 17 19 26 25 24 25 25 24 24 24
32 28 31 24 23 22 22 23 21 21 22 26 25 22 21 24 22 23 24 26 27 30 26 24 25 28 26 23 23 24 24 26 26 25 23 22 23 24 25 24 23 23 24 24 24
28 29 33 25 25 21 23 22 22 22 23 24 22 22 21 22 24 23 23 23 24 24 23 22 22 21 19 19 18 18 19 21 23 23 24 24 24 26 24 20 19 21 21 22 21
35 35 32 25 23 22 22 22 23 23 24 23 22 21 21 24 24 23 23 24 23 22 21 20 20 17 15 15 15 15 25 26 21 19 25 21 17 16 15 16 15 19 17 19 22
Wind_Speed
21 21 21 22 22 23 24 24 24 24 23 23 24 23 21 18 18 1 3 2 3 4 7 9 9 12 5 3 2 1 1 6 4 9 2 2 3 5 7 9 4 3 6 9 27
21 22 22 23 24 24 24 25 25 25 24 23 23 23 18 15 6 5 4 2 1 5 5 9 11 10 3 4 3 3 2 4 6 6 4 8 7 4 3 8 5 10 12 24 26
22 23 23 24 24 25 25 26 26 25 24 23 22 21 15 10 3 2 5 4 1 4 3 8 10 5 4 2 4 4 12 11 13 8 6 5 7 5 5 4 11 17 26 26 24
22 23 24 25 26 27 27 26 27 26 25 23 22 19 13 1 2 2 6 4 0 3 5 8 5 3 4 5 7 7 7 11 12 3 6 4 7 11 3 9 6 20 30 25 26
23 24 25 26 27 29 29 28 27 26 24 22 20 15 4 1 5 4 6 4 1 3 4 5 6 5 5 6 10 6 5 11 10 10 4 6 9 10 15 15 10 18 26 27 26
24 25 26 28 29 30 30 29 26 24 23 20 16 6 1 2 4 9 5 4 3 3 7 4 5 7 6 7 5 7 8 12 13 16 8 10 13 9 6 11 17 22 29 28 29
25 26 28 30 31 31 31 28 26 23 21 17 10 3 2 10 4 7 4 2 1 3 4 5 5 5 9 8 6 9 14 16 19 15 13 8 11 14 23 18 22 13 25 27 29
26 27 29 30 32 33 32 29 24 23 17 10 2 2 4 3 1 0 3 4 4 4 1 2 4 4 3 5 8 4 1 5 12 8 4 10 14 17 18 13 26 27 18 26 27
26 28 31 32 33 34 33 32 24 13 3 2 2 1 4 0 2 4 0 4 10 4 3 2 2 3 5 2 7 3 6 5 7 5 5 7 8 12 12 15 11 21 26 20 27
27 28 30 32 34 35 34 29 3 3 1 4 6 3 5 2 1 3 4 3 1 4 2 3 2 1 3 0 5 6 5 11 12 4 5 6 18 20 21 19 21 20 21 18 17
28 29 31 33 34 35 20 4 6 4 3 1 1 3 3 8 2 3 4 1 2 3 3 5 3 8 8 3 3 3 6 11 17 1 6 8 18 24 20 12 13 14 19 20 15
28 30 32 33 34 30 11 7 2 3 5 5 3 4 5 1 3 4 3 2 3 5 4 4 11 11 3 2 3 3 8 13 13 9 13 13 19 12 16 14 14 12 3 14 15
29 31 32 32 33 5 19 10 9 7 1 3 1 2 3 1 3 5 4 2 4 6 11 7 6 5 1 5 5 6 7 4 4 11 6 6 12 16 12 24 25 23 15 21 15
29 31 32 32 5 10 4 13 13 2 3 0 1 1 0 1 2 1 2 1 2 4 4 6 3 2 1 5 5 9 2 3 5 8 4 6 4 7 10 21 23 23 20 18 20
30 30 28 24 7 5 9 13 12 1 2 1 2 1 3 1 2 1 1 0 5 8 3 5 3 1 3 4 2 4 6 7 3 4 5 2 5 4 8 15 16 18 21 17 19
32 30 22 4 4 5 12 13 3 1 3 2 2 1 1 3 2 3 0 1 3 5 6 15 2 3 4 4 3 5 6 7 2 2 3 8 5 8 3 9 11 15 20 21 21
34 30 17 5 6 13 13 4 2 5 3 7 4 6 10 3 3 5 2 2 3 5 4 7 5 1 0 3 1 1 4 3 1 1 3 4 1 6 12 13 16 20 22 22 23
37 28 5 5 9 7 6 2 5 4 4 7 5 12 3 4 1 2 3 3 13 7 4 4 3 3 2 1 1 4 2 1 2 1 3 1 6 10 15 17 15 18 20 24 24
26 8 3 7 11 4 4 9 3 4 7 10 12 3 3 2 2 3 6 7 9 12 4 8 2 1 0 1 1 1 2 1 3 2 2 3 5 6 9 18 17 19 23 22 22
10 7 5 13 10 4 5 6 4 5 6 6 6 9 6 8 6 8 3 8 9 10 7 4 6 3 1 2 2 3 3 1 1 2 3 2 7 7 12 16 13 19 21 20 21
3 4 6 18 4 6 7 5 4 10 11 5 5 5 6 7 6 7 6 5 10 10 8 8 1 4 3 2 4 1 2 3 2 4 2 3 5 9 22 15 17 18 18 19 20
7 3 14 10 5 5 5 3 4 9 14 7 4 7 4 8 5 6 3 3 8 6 5 6 3 5 5 1 1 1 2 2 2 3 2 2 5 8 14 16 19 17 16 17 18
6 5 10 9 7 7 5 5 6 10 10 8 8 9 9 4 4 3 5 1 6 6 4 6 1 5 2 2 7 5 4 7 1 2 4 1 8 5 15 18 14 16 15 16 17
4 4 9 10 4 5 7 7 4 12 8 10 8 8 7 5 8 3 6 11 6 3 8 2 4 6 7 1 9 8 7 6 3 1 2 5 7 14 17 17 17 16 11 12 15
7 3 1 6 12 13 6 7 16 9 11 15 9 15 11 4 11 5 11 10 11 8 6 6 5 7 13 14 9 10 12 12 13 12 8 5 11 13 14 14 15 15 14 14 15
5 4 6 6 8 10 12 12 13 9 7 6 8 12 12 5 5 8 11 4 5 8 6 9 5 12 12 15 18 19 19 21 19 18 18 14 6 14 12 13 17 17 20 16 17
7 5 2 8 9 7 6 9 10 8 6 11 10 8 6 10 14 15 15 15 16 10 6 5 3 6 6 14 8 1 17 11 21 18 4 7 6 12 15 17 20 11 17 18 16
Wind_Direction
354 351 348 345 343 341 338 337 335 333 331 330 331 331 329 329 321 337 255 261 215 320 332 306 308 280 297 254 224 40 335 260 275 329 327 59 77 16 113 124 79 53 151 168 155
351 348 346 343 340 338 335 333 331 329 327 327 329 331 332 333 321 277 224 198 253 10 1 345 337 342 339 268 199 172 223 263 315 338 46 21 32 124 102 122 101 92 97 133 148
351 348 344 342 339 335 332 329 327 325 323 324 327 328 329 326 329 236 191 194 174 33 277 293 282 299 284 318 226 223 249 274 302 343 66 25 351 2 152 201 187 170 151 154 160
351 348 344 340 337 333 329 325 323 321 319 320 324 325 322 322 152 207 192 200 132 305 317 305 330 290 246 286 288 233 273 292 299 339 7 358 323 323 270 225 165 178 164 160 171
349 345 341 337 333 329 325 322 318 314 313 315 322 327 333 342 256 183 201 226 271 280 288 335 352 348 354 319 332 299 312 311 312 311 266 308 289 275 283 279 295 164 163 173 179
346 342 338 333 328 325 322 318 314 311 308 310 317 331 344 275 149 152 201 205 276 281 333 47 10 341 299 300 320 301 301 301 297 288 272 236 253 248 265 266 273 164 179 181 183
344 340 336 331 325 322 320 317 312 307 303 303 306 256 279 235 123 142 174 221 44 7 352 31 30 8 325 305 310 291 294 297 270 255 239 222 266 246 248 248 260 221 192 191 195
342 338 334 329 324 321 320 315 307 301 300 291 255 231 251 252 30 170 242 258 198 250 197 358 5 298 224 271 323 267 319 313 304 213 227 167 271 268 278 263 241 239 220 203 203
341 337 333 328 324 324 321 313 305 293 253 123 105 173 305 91 70 306 283 243 229 199 203 239 298 243 317 263 329 335 297 330 308 171 149 194 262 269 288 306 269 243 239 230 209
339 334 330 328 326 326 325 316 288 346 233 212 263 308 296 75 4 328 301 314 338 296 261 203 218 259 309 101 312 324 334 327 319 306 195 244 260 273 275 281 276 260 244 231 225
337 333 330 328 328 326 339 5 13 39 12 342 276 293 1 328 200 228 207 154 290 281 246 216 225 273 273 209 212 332 320 311 300 304 326 274 293 298 304 298 306 270 251 224 222
337 332 330 330 326 325 342 66 79 225 319 324 264 275 252 274 307 241 136 192 193 246 284 271 263 262 244 295 356 330 301 295 298 338 348 308 311 10 36 38 33 19 225 243 231
337 332 331 331 324 3 63 38 354 148 314 316 219 320 120 144 290 174 153 311 253 275 288 255 271 164 302 314 301 284 284 296 314 342 331 44 47 51 35 47 42 37 50 50 54
335 332 332 333 341 337 65 351 338 36 78 112 132 173 74 221 281 16 62 59 289 270 284 272 161 172 322 293 282 282 360 352 354 12 303 45 124 50 56 54 45 37 35 37 39
334 331 332 330 307 32 322 326 321 85 42 67 109 174 154 228 229 314 18 158 253 268 354 262 201 243 285 288 338 259 326 296 289 306 323 329 139 154 69 64 48 41 33 35 33
333 329 336 12 302 310 326 320 345 44 100 73 133 132 191 236 227 168 6 216 261 298 256 249 181 246 218 283 245 308 316 312 232 194 284 231 148 193 141 111 72 55 45 39 33
332 327 325 299 335 318 329 356 77 62 327 0 345 349 335 219 223 186 209 266 334 333 353 321 237 131 317 322 294 338 2 10 68 167 239 170 104 169 141 115 101 79 58 41 33
331 323 292 238 305 327 354 53 82 52 7 358 345 312 244 17 29 242 339 20 23 20 311 315 300 165 159 233 239 243 146 146 255 191 281 348 173 175 133 98 83 77 68 50 40
331 338 333 332 328 2 41 54 56 11 343 331 321 332 69 37 312 312 75 24 34 26 8 354 330 317 41 353 81 337 239 170 279 266 248 174 50 101 160 86 76 71 64 53 45
335 338 332 323 333 15 72 104 94 42 342 332 6 21 27 5 29 12 73 9 343 359 15 310 298 267 283 342 260 223 302 201 350 278 265 202 177 181 190 98 78 72 67 55 47
19 23 309 329 48 50 86 87 80 43 11 19 12 347 6 2 344 356 17 22 357 337 344 3 331 302 340 230 243 169 251 220 234 192 245 319 36 8 110 111 88 75 66 58 50
347 60 314 353 58 61 68 61 32 12 10 2 37 25 14 356 331 10 105 68 360 357 5 23 307 273 256 250 141 144 10 81 195 309 352 146 78 350 94 91 83 73 65 58 51
14 317 333 56 58 24 110 83 68 34 20 11 25 1 5 313 335 48 108 95 35 46 32 352 328 304 281 327 19 51 21 41 329 117 259 279 152 42 63 68 63 68 62 57 48
41 27 348 37 32 58 22 26 105 41 48 12 30 40 12 349 359 342 52 8 334 24 359 207 253 214 231 265 334 306 310 337 34 258 294 247 140 39 48 48 35 25 34 59 51
39 68 353 18 359 1 51 51 53 24 5 22 47 29 6 321 339 45 13 0 345 31 30 26 273 288 298 303 304 280 282 283 271 256 256 273 320 58 43 40 14 5 5 35 33
77 34 7 9 356 16 25 27 51 10 13 37 38 0 352 44 2 318 348 354 269 348 25 358 287 323 306 295 288 283 278 270 255 259 262 252 236 6 18 26 13 32 36 28 19
356 2 70 1 26 67 38 23 25 26 31 37 2 347 1 348 321 295 277 258 258 288 320 297 286 340 273 352 319 308 344 328 80 48 51 75 11 357 8 16 350 23 19 7 1